This is the latest recevied weather packets stored in our database for station/object p43g-13. If no packets are shown the sender has not sent any weather packets the latest 10 day(s).
| Time | Temp. | Humidity | Pressure | Rain* | Wind** | Luminosity | Snow |
|---|---|---|---|---|---|---|---|
| 1787412974 | 31.11° C | 75% | 1013.3 hPa | 0 mm | - | 399 W/m² | - |
| 1787412674 | 31.67° C | 73% | 1012.9 hPa | 0 mm | - | 722 W/m² | - |
| 1787412374 | 31.11° C | 74% | 1013.1 hPa | 0 mm | - | 786 W/m² | - |
| 1787412075 | 31.67° C | 74% | 1013.2 hPa | 0 mm | - | 763 W/m² | - |
| 1787411774 | 31.11° C | 75% | 1013.2 hPa | 0 mm | - | 828 W/m² | - |
| 1787411474 | 31.11° C | 75% | 1013.2 hPa | 0 mm | - | 745 W/m² | - |
| 1787411174 | 30.56° C | 76% | 1013 hPa | 0 mm | - | 679 W/m² | - |
| 1787410874 | 30.56° C | 76% | 1013.1 hPa | 0 mm | - | 680 W/m² | - |
| 1787410574 | 30.56° C | 77% | 1012.9 hPa | 0 mm | - | 663 W/m² | - |
| 1787410274 | 30.56° C | 76% | 1013.1 hPa | 0 mm | - | 583 W/m² | - |
| 1787409974 | 30.56° C | 77% | 1012.9 hPa | 0 mm | - | 407 W/m² | - |
| 1787409674 | 30.56° C | 76% | 1013 hPa | 0 mm | - | 413 W/m² | - |
| 1787409375 | 30.56° C | 76% | 1013.1 hPa | 0 mm | - | 425 W/m² | - |
| 1787409074 | 30.56° C | 77% | 1013.1 hPa | 0 mm | - | 399 W/m² | - |
| 1787408779 | 30.56° C | 77% | 1013.3 hPa | 0 mm | - | 394 W/m² | - |
| 1787408474 | 30° C | 76% | 1013.2 hPa | 0 mm | - | 363 W/m² | - |
| 1787408174 | 30.56° C | 76% | 1013.3 hPa | 0 mm | - | 412 W/m² | - |
| 1787407874 | 30.56° C | 75% | 1013.2 hPa | 0 mm | - | 324 W/m² | - |
| 1787407574 | 30.56° C | 74% | 1013.2 hPa | 0 mm | - | 372 W/m² | - |
| 1787407274 | 30.56° C | 76% | 1013.3 hPa | 0 mm | - | 383 W/m² | - |
| 1787406974 | 30° C | 76% | 1013.2 hPa | 0 mm | - | 444 W/m² | - |
| 1787406674 | 30.56° C | 76% | 1013.3 hPa | 0 mm | - | 402 W/m² | - |
| 1787406375 | 30° C | 76% | 1013.1 hPa | 0 mm | - | 328 W/m² | - |
| 1787406074 | 30° C | 76% | 1013.3 hPa | 0 mm | - | 387 W/m² | - |
| 1787405774 | 30° C | 77% | 1013.2 hPa | 0 mm | - | 413 W/m² | - |
* Rain latest hour (hover to see other rain measurements)
** Current wind speed in m/s (hover to see current wind gust speed)